Flag for Switzerland Weather past 2 weeks in Ostermundigen, Bern, Switzerland

Now
39 °F

Drizzle. Fog.


Feels Like: 39 °F
Forecast: 40 / 47 °F
Wind: 2 mph from North

Location: Bern / Belp

Current Time: Dec 17, 2014 at 11:02:36 PM

Latest Report: Dec 17, 2014 at 10:20 PM


Visibility: 3 mi

Pressure: 30.04 "Hg

Humidity: 100%

Dew point: 39 °F

Location of OstermundigenLocation

Historic Weather in Ostermundigen — Graph

°F

Ostermundigen temperature yesterday

Maximum temperature yesterday: 48 °F (at 12:50 PM)
Minimum temperature yesterday: 37 °F (at 12:20 AM)
Average temperature yesterday: 42 °F

Past Weeks' High & Low Weather Summary

 TemperatureHumidityPressure
High48 °F (Dec 12, 1:50 PM)100% (Dec 4, 2:20 AM)30.39 "Hg (Dec 4, 2:20 AM)
Low25 °F (Dec 10, 4:20 AM)50% (Dec 12, 1:50 PM)29.80 "Hg (Dec 2, 9:20 PM)
Average38 °F89%30.05 "Hg
* Reported Dec 2 9:20 PM — Dec 17 9:50 PM, Ostermundigen, Weather by CustomWeather, © 2014

Note: Actual official high and low records may vary slightly from our data, if they occured in-between our weather recording intervals... More about our weather records

Advertising

Ostermundigen weather history for previous 24 hours

 ConditionsComfort  
Time TempWeatherWind HumidityBarometerVisibility
9:50 PM
Dec 17
39 °FPassing clouds.2 mph100%30.04 "Hg3 mi
9:20 PM39 °FDrizzle. Fog.3 mph100%30.04 "Hg2 mi
8:50 PM39 °FDrizzle. Fog.3 mph100%30.01 "Hg3 mi
8:20 PM39 °FLight rain. Passing clouds.5 mph100%30.01 "Hg3 mi
7:50 PM39 °FLight rain. Fog.3 mph100%30.01 "Hg2 mi
7:20 PM39 °FLight rain. Passing clouds.6 mph100%29.98 "Hg5 mi
6:50 PM39 °FLight rain. Passing clouds.5 mph100%29.98 "HgN/A
6:20 PM39 °FLight rain. Passing clouds.5 mph100%29.95 "HgN/A
5:50 PM39 °FLight rain. Passing clouds.6 mph100%29.95 "HgN/A
5:20 PM39 °FLight rain. Passing clouds.7 mph100%29.95 "HgN/A
4:50 PM39 °FLight rain. Partly cloudy.7 mph100%29.92 "HgN/A
4:20 PM39 °FLight rain. Broken clouds.6 mph100%29.92 "HgN/A
3:50 PM39 °FLight rain. Scattered clouds.3 mph93%29.92 "HgN/A
3:20 PM41 °FLight rain. Partly sunny.6 mph93%29.92 "Hg5 mi
2:50 PM41 °FLight rain. Partly sunny.6 mph93%29.92 "Hg5 mi
2:20 PM41 °FLight rain. Partly sunny.6 mph87%29.92 "Hg5 mi
1:50 PM41 °FLight rain. Broken clouds.8 mph87%29.92 "HgN/A
1:20 PM41 °FLight rain. More clouds than sun.9 mph93%29.92 "HgN/A
12:50 PM41 °FDrizzle. Partly sunny.6 mph93%29.95 "HgN/A
12:20 PM41 °FOvercast.3 mph100%29.95 "HgN/A
11:50 AM41 °FBroken clouds.5 mph100%29.98 "HgN/A
11:20 AM39 °FBroken clouds.3 mph100%29.98 "HgN/A
10:50 AM39 °FBroken clouds.5 mph100%29.98 "HgN/A
10:20 AM37 °FBroken clouds.3 mph100%30.01 "HgN/A
9:50 AM37 °FPartly sunny.5 mph100%30.01 "Hg5 mi
9:20 AM37 °FFog.3 mph100%30.01 "Hg1 mi
8:50 AM37 °FFog.3 mph100%30.01 "Hg0 mi
8:20 AM37 °FFog.2 mph100%30.01 "Hg0 mi
7:50 AM37 °FFog.2 mph100%30.01 "Hg0 mi
7:20 AM37 °FFog.5 mph100%30.01 "Hg0 mi
6:50 AM37 °FFog.6 mph100%29.98 "Hg1 mi
6:20 AM37 °FFog.5 mph100%30.01 "Hg0 mi
5:50 AM37 °FFog.3 mph100%29.98 "Hg0 mi
5:20 AM37 °FFog.5 mph100%29.98 "Hg0 mi
4:50 AM39 °FFog.2 mph100%29.98 "Hg2 mi
4:20 AM39 °FFog.3 mph100%30.01 "Hg1 mi
3:50 AM39 °FFog.2 mph100%30.01 "Hg1 mi
3:20 AM39 °FFog.2 mph100%30.01 "Hg0 mi
2:50 AM39 °FFog.1 mph100%30.01 "Hg1 mi
2:20 AM39 °FFog.1 mph100%30.01 "Hg1 mi
1:50 AM39 °FFog.1 mph100%30.01 "Hg0 mi
1:20 AM39 °FFog.1 mph100%30.01 "Hg1 mi
12:50 AM39 °FFog.1 mph100%30.01 "Hg1 mi
12:20 AM37 °FFog.1 mph100%30.01 "Hg1 mi
11:50 PM
Dec 16
37 °FFog.1 mph100%30.01 "Hg1 mi
11:20 PM39 °FFog.1 mph93%30.01 "Hg0 mi
Weather by CustomWeather, © 2014

See weather overviewHow to use our weather pages